When you browse on this site, cookies collect data to enhance your experience and personalize the content and advertising you see.
Visit our Privacy Policy to learn more. By continuing to use the site, you agree to this use of cookies and data.
  • In Hungary
  • List of Countries
  • For 7 days
  • Water Temperature
  • Satellite Maps
  • Weather Map
  • News
  • Weather Widgets
  • user-avatar
    Login

    Hourly Weather Waco

    Today, 18 June, Tuesday

    Time Temperature Precipitation Wind Pressure Humidity
    00:00 +25°C° 0 mm 1 mps 747 mmHg 88%
    01:00 +25°C° 0 mm 1 mps 747 mmHg 89%
    02:00 +24°C° 0 mm 1 mps 747 mmHg 90%
    03:00 +24°C° 0 mm 2 mps 747 mmHg 92%
    04:00 +24°C° 0 mm 2 mps 747 mmHg 92%
    05:00 +24°C° 0 mm 2 mps 747 mmHg 93%
    06:00 +24°C° 0 mm 2 mps 747 mmHg 94%
    07:00 +25°C° 0 mm 2 mps 747 mmHg 88%
    08:00 +27°C° 0 mm 3 mps 747 mmHg 81%
    09:00 +29°C° 0 mm 3 mps 748 mmHg 75%
    10:00 +31°C° 0 mm 3 mps 747 mmHg 69%
    11:00 +33°C° 0 mm 3 mps 747 mmHg 64%
    12:00 +34°C° 0 mm 3 mps 747 mmHg 58%
    13:00 +35°C° 0 mm 3 mps 747 mmHg 55%
    14:00 +36°C° 0 mm 2 mps 746 mmHg 53%
    15:00 +36°C° 0 mm 2 mps 746 mmHg 50%
    16:00 +36°C° 0 mm 2 mps 745 mmHg 54%
    17:00 +36°C° 0 mm 2 mps 745 mmHg 57%
    18:00 +35°C° 0 mm 3 mps 745 mmHg 61%
    19:00 +34°C° 0 mm 3 mps 745 mmHg 64%
    20:00 +32°C° 0 mm 4 mps 745 mmHg 67%
    21:00 +29°C° 0 mm 4 mps 745 mmHg 71%
    22:00 +29°C° 0 mm 4 mps 745 mmHg 73%
    23:00 +28°C° 0 mm 4 mps 745 mmHg 74%

    Tomorrow, 19 June, Wednesday

    Time Temperature Precipitation Wind Pressure Humidity
    00:00 +28°C° 0 mm 4 mps 746 mmHg 76%
    01:00 +27°C° 0.2 mm 4 mps 745 mmHg 80%
    02:00 +27°C° 0.2 mm 4 mps 745 mmHg 84%
    03:00 +27°C° 0.2 mm 4 mps 744 mmHg 87%
    04:00 +27°C° 0 mm 4 mps 744 mmHg 86%
    05:00 +27°C° 0 mm 5 mps 744 mmHg 85%
    06:00 +27°C° 0 mm 6 mps 744 mmHg 84%
    07:00 +28°C° 0 mm 6 mps 744 mmHg 77%
    08:00 +30°C° 0 mm 7 mps 744 mmHg 70%
    09:00 +33°C° 0 mm 7 mps 744 mmHg 63%
    10:00 +34°C° 0 mm 7 mps 744 mmHg 60%
    11:00 +36°C° 0 mm 7 mps 744 mmHg 56%
    12:00 +38°C° 0 mm 7 mps 744 mmHg 52%
    13:00 +39°C° 0 mm 7 mps 743 mmHg 50%
    14:00 +40°C° 0 mm 7 mps 743 mmHg 47%
    15:00 +40°C° 0 mm 7 mps 742 mmHg 45%
    16:00 +40°C° 0 mm 6 mps 742 mmHg 48%
    17:00 +39°C° 0 mm 6 mps 741 mmHg 51%
    18:00 +37°C° 0 mm 5 mps 741 mmHg 54%
    19:00 +36°C° 0 mm 6 mps 741 mmHg 57%
    20:00 +35°C° 0 mm 7 mps 741 mmHg 59%
    21:00 +33°C° 0 mm 8 mps 742 mmHg 62%
    22:00 +32°C° 0 mm 8 mps 742 mmHg 67%
    23:00 +31°C° 0 mm 8 mps 742 mmHg 73%

    Day after tomorrow, 20 June, Thursday

    Time Temperature Precipitation Wind Pressure Humidity
    00:00 +29°C° 0 mm 8 mps 742 mmHg 78%
    01:00 +29°C° 0 mm 8 mps 742 mmHg 79%
    02:00 +29°C° 0 mm 8 mps 742 mmHg 81%
    03:00 +28°C° 0 mm 7 mps 742 mmHg 83%
    04:00 +28°C° 0 mm 7 mps 742 mmHg 83%
    05:00 +28°C° 0 mm 6 mps 742 mmHg 84%
    06:00 +28°C° 0 mm 6 mps 742 mmHg 84%
    07:00 +29°C° 0 mm 6 mps 743 mmHg 78%
    08:00 +32°C° 0 mm 7 mps 743 mmHg 72%
    09:00 +34°C° 0 mm 7 mps 743 mmHg 66%
    10:00 +35°C° 0 mm 7 mps 743 mmHg 61%
    11:00 +38°C° 0 mm 7 mps 743 mmHg 56%
    12:00 +39°C° 0 mm 7 mps 743 mmHg 51%
    13:00 +40°C° 0 mm 7 mps 743 mmHg 48%
    14:00 +41°C° 0 mm 6 mps 743 mmHg 45%
    15:00 +42°C° 0 mm 6 mps 742 mmHg 42%
    16:00 +40°C° 0.1 mm 7 mps 742 mmHg 47%
    17:00 +38°C° 0.1 mm 7 mps 742 mmHg 52%
    18:00 +35°C° 0.1 mm 8 mps 743 mmHg 57%
    19:00 +34°C° 0.6 mm 8 mps 743 mmHg 51%
    20:00 +32°C° 0.6 mm 8 mps 744 mmHg 46%
    21:00 +31°C° 0.6 mm 9 mps 744 mmHg 40%
    22:00 +29°C° 0 mm 8 mps 744 mmHg 50%
    23:00 +28°C° 0 mm 8 mps 744 mmHg 59%

    21 June, Friday

    Time Temperature Precipitation Wind Pressure Humidity
    00:00 +27°C° 0 mm 8 mps 744 mmHg 68%
    01:00 +27°C° 0 mm 8 mps 744 mmHg 76%
    02:00 +27°C° 0 mm 7 mps 744 mmHg 83%
    03:00 +27°C° 0 mm 7 mps 744 mmHg 90%
    04:00 +27°C° 0 mm 6 mps 744 mmHg 92%
    05:00 +26°C° 0 mm 6 mps 745 mmHg 93%
    06:00 +26°C° 0 mm 5 mps 745 mmHg 94%
    07:00 +27°C° 0 mm 6 mps 745 mmHg 88%
    08:00 +29°C° 0 mm 6 mps 746 mmHg 82%
    09:00 +30°C° 0 mm 7 mps 746 mmHg 76%
    10:00 +32°C° 0 mm 7 mps 746 mmHg 72%
    11:00 +33°C° 0 mm 8 mps 746 mmHg 68%
    12:00 +35°C° 0 mm 8 mps 746 mmHg 64%
    13:00 +37°C° 0 mm 8 mps 746 mmHg 61%
    14:00 +38°C° 0 mm 8 mps 745 mmHg 58%
    15:00 +39°C° 0 mm 8 mps 745 mmHg 55%
    16:00 +38°C° 0 mm 8 mps 745 mmHg 58%
    17:00 +36°C° 0 mm 7 mps 745 mmHg 60%
    18:00 +35°C° 0 mm 7 mps 745 mmHg 63%
    19:00 +34°C° 0 mm 7 mps 745 mmHg 67%
    20:00 +33°C° 0 mm 8 mps 746 mmHg 71%
    21:00 +31°C° 0 mm 8 mps 746 mmHg 75%
    22:00 +29°C° 0 mm 8 mps 746 mmHg 79%
    23:00 +29°C° 0 mm 7 mps 747 mmHg 83%

    22 June, Saturday

    Time Temperature Precipitation Wind Pressure Humidity
    00:00 +28°C° 0 mm 7 mps 747 mmHg 87%
    01:00 +28°C° 0 mm 7 mps 747 mmHg 86%
    02:00 +28°C° 0 mm 7 mps 747 mmHg 85%
    03:00 +28°C° 0 mm 7 mps 747 mmHg 83%
    04:00 +29°C° 0 mm 7 mps 747 mmHg 83%
    05:00 +29°C° 0 mm 7 mps 747 mmHg 82%
    06:00 +29°C° 0 mm 7 mps 747 mmHg 82%
    07:00 +31°C° 0 mm 8 mps 747 mmHg 78%
    08:00 +31°C° 0 mm 8 mps 748 mmHg 75%
    09:00 +32°C° 0 mm 9 mps 748 mmHg 72%
    10:00 +33°C° 0 mm 9 mps 748 mmHg 67%
    11:00 +34°C° 0 mm 8 mps 748 mmHg 62%
    12:00 +37°C° 0 mm 8 mps 748 mmHg 57%
    13:00 +37°C° 0 mm 8 mps 747 mmHg 55%
    14:00 +37°C° 0 mm 9 mps 747 mmHg 54%
    15:00 +38°C° 0 mm 9 mps 747 mmHg 53%
    16:00 +37°C° 0 mm 8 mps 746 mmHg 56%
    17:00 +35°C° 0 mm 8 mps 746 mmHg 60%
    18:00 +34°C° 0 mm 7 mps 746 mmHg 63%
    19:00 +33°C° 0 mm 8 mps 746 mmHg 66%
    20:00 +32°C° 0 mm 8 mps 746 mmHg 68%
    21:00 +32°C° 0 mm 9 mps 747 mmHg 71%
    22:00 +31°C° 0 mm 9 mps 747 mmHg 75%
    23:00 +29°C° 0 mm 8 mps 747 mmHg 79%

    23 June, Sunday

    Time Temperature Precipitation Wind Pressure Humidity
    00:00 +28°C° 0 mm 8 mps 747 mmHg 83%
    01:00 +28°C° 0 mm 8 mps 747 mmHg 82%
    02:00 +28°C° 0 mm 7 mps 747 mmHg 82%
    03:00 +28°C° 0 mm 7 mps 747 mmHg 81%
    04:00 +28°C° 0 mm 7 mps 747 mmHg 82%
    05:00 +28°C° 0 mm 7 mps 747 mmHg 84%
    06:00 +27°C° 0 mm 6 mps 747 mmHg 86%
    07:00 +28°C° 0 mm 7 mps 747 mmHg 82%
    08:00 +29°C° 0 mm 7 mps 747 mmHg 79%
    09:00 +30°C° 0 mm 7 mps 747 mmHg 75%
    10:00 +32°C° 0.1 mm 7 mps 747 mmHg 69%
    11:00 +34°C° 0.1 mm 8 mps 747 mmHg 64%
    12:00 +35°C° 0.1 mm 8 mps 747 mmHg 59%
    13:00 +37°C° 0 mm 8 mps 747 mmHg 56%
    14:00 +37°C° 0 mm 8 mps 746 mmHg 54%
    15:00 +38°C° 0 mm 8 mps 745 mmHg 51%
    16:00 +36°C° 0 mm 7 mps 745 mmHg 54%
    17:00 +36°C° 0 mm 7 mps 745 mmHg 57%
    18:00 +35°C° 0 mm 7 mps 745 mmHg 60%
    19:00 +34°C° 0 mm 7 mps 745 mmHg 63%
    20:00 +33°C° 0 mm 8 mps 745 mmHg 66%
    21:00 +32°C° 0 mm 8 mps 745 mmHg 69%
    22:00 +31°C° 0 mm 8 mps 745 mmHg 73%
    23:00 +29°C° 0 mm 8 mps 745 mmHg 76%
    Show more